Flag for Canada Weather past 2 weeks in Oshawa, Ontario, Canada

Now
34 °F

Scattered clouds.


Feels Like: 24 °F
Forecast: 30 / 44 °F
Wind: 14 mph from Southeast

Location: Toronto Buttonville


UV Index: 5 (Moderate)

Visibility: 15 mi


Pressure: 30.58 "Hg

Humidity: 65%

Dew point: 23 °F

Location of OshawaLocation

Historic Weather in Oshawa

°F

Oshawa temperature yesterday

Maximum temperature yesterday: 39 °F (at 4:00 PM)
Minimum temperature yesterday: 19 °F (at 5:00 AM)
Average temperature yesterday: 29 °F

Past Weeks' High & Low Weather Summary

 TemperatureHumidityPressure
High70 °F (Apr 13, 5:00 PM)100% (Apr 4, 2:00 PM)30.58 "Hg (Apr 4, 2:00 PM)
Low19 °F (Apr 16, 5:00 AM)25% (Apr 11, 2:00 PM)29.33 "Hg (Apr 8, 6:00 AM)
Average41 °F66%29.94 "Hg
* Reported Apr 2 8:00 AM — Apr 17 8:00 AM, Oshawa, Weather by CustomWeather, © 2014

Note: Actual official high and low records may vary slightly from our data, if they occured in-between our weather recording intervals... More about our weather records

Advertising

Historic Weather Conditions — Data for Previous 24 hours

 ConditionsComfort  
Time TempWeatherWind HumidityBarometerVisibility
8:00 AM
Apr 17
34 °FScattered clouds.14 mph65%30.58 "Hg15 mi
7:00 AM30 °FPassing clouds.14 mph69%30.58 "Hg15 mi
6:00 AM30 °FPassing clouds.8 mph69%30.57 "Hg15 mi
5:00 AM30 °FPassing clouds.8 mph69%30.57 "Hg15 mi
4:00 AM28 °FPassing clouds.6 mph80%30.57 "Hg15 mi
3:00 AM28 °FClear.5 mph80%30.57 "Hg15 mi
2:00 AM28 °FClear.5 mph80%30.57 "Hg15 mi
1:00 AM28 °FClear.3 mph80%30.57 "Hg15 mi
12:00 AM30 °FPassing clouds.3 mph69%30.55 "Hg15 mi
11:00 PM
Apr 16
30 °FPassing clouds.No wind69%30.56 "Hg15 mi
10:00 PM32 °FPassing clouds.3 mph64%30.57 "Hg15 mi
9:00 PM32 °FPassing clouds.6 mph64%30.54 "Hg15 mi
8:00 PM34 °FPassing clouds.7 mph60%30.51 "Hg15 mi
7:00 PM36 °FPartly sunny.9 mph52%30.50 "Hg15 mi
6:00 PM37 °FPartly sunny.9 mph52%30.50 "Hg15 mi
5:00 PM39 °FBroken clouds.7 mph39%30.49 "Hg15 mi
4:00 PM39 °FPartly sunny.7 mph42%30.49 "Hg15 mi
3:00 PM37 °FPartly sunny.6 mph41%30.49 "Hg15 mi
2:00 PM36 °FPartly sunny.7 mph48%30.50 "Hg15 mi
1:00 PM34 °FPartly sunny.9 mph48%30.50 "Hg15 mi
12:00 PM32 °FPartly sunny.3 mph55%30.50 "Hg15 mi
11:00 AM32 °FScattered clouds.8 mph51%30.50 "Hg15 mi
10:00 AM28 °FPassing clouds.No wind55%30.47 "Hg15 mi
9:00 AM25 °FPassing clouds.2 mph63%30.45 "Hg15 mi
Weather by CustomWeather, © 2014

See weather overview